Location: Unspecified
(0.0000°N, 0.0000°E)
Time: 20:49:11
(UTC+02:00)

CZ-4B DEB - Visible Passes

Search period start: 24 October 2014 00:00
Search period end: 02 November 2014 23:00
Orbit: 516 x 530 km, 97.5° (Epoch: 24 October)

Date Brightness Start Highest point End Pass type
(mag) Time Alt. Az. Time Alt. Az. Time Alt. Az.
24 Oct 5.4 21:16:16 10° SSW 21:19:31 27° WSW 21:22:46 10° NW visible
25 Oct 4.5 21:03:20 10° S 21:06:59 42° WSW 21:10:36 10° NNW visible
26 Oct 3.5 19:50:34 10° S 19:54:23 71° WSW 19:58:10 10° NNW visible
27 Oct 3.1 19:37:55 10° SSE 19:41:44 70° ENE 19:45:31 10° N visible
28 Oct 3.6 19:25:24 10° SSE 19:29:01 41° E 19:32:37 10° N visible
29 Oct 4.2 19:13:03 10° SE 19:16:16 26° E 19:19:27 10° NNE visible
30 Oct 6.4 20:35:15 10° SW 20:37:21 14° WSW 20:39:27 10° WNW visible
31 Oct 5.7 20:21:29 10° SSW 20:24:30 22° WSW 20:27:30 10° NW visible
01 Nov 4.9 20:08:04 10° SSW 20:11:35 35° WSW 20:15:04 10° NW visible
02 Nov 3.8 19:54:51 10° S 19:58:37 59° WSW 20:02:20 10° NNW visible
